Aeroporto :
LOGIN :

Iscrizione | Disclaimer

   EN    FR    IT 

 










Sommario :    VFR   VFR Marginale   IFR   IFR Intensivo   IFR Molto Intensivo
Visibilità : 
Base nubi : 
>= 8 km
>= 3000ft
5 / 8 km
1000 / 3000 ft
1500m / 5 km
500 / 1000 ft
800 / 1500m
200 / 500 ft
< 800m
< 200 ft
Simboli :   Temporali  Nebbia  Neve Forte  Precipitazioni Forti  Vento > 20 kt
SIGMETs :   Varie  Temporali  Ghiacco  Turbolenza  Onda orograficha  Ceneri Vulcaniche






- Altitudine del aeroporto : 119 ft
- Codice IATA : WAT


EIWF - Waterford

ULTIMO METAR :
  • 091700Z 25007KT 210V320 CAVOK 21/15 Q1018

METARs OBSOLETI :
  • 091630Z 25008KT 220V280 CAVOK 21/15 Q1018
  • 091600Z 25008KT 220V280 CAVOK 21/14 Q1019
  • 091530Z 24011KT 220V280 CAVOK 21/14 Q1019
  • 091500Z 23010KT CAVOK 21/15 Q1019
  • 091430Z 23009KT 200V260 CAVOK 21/14 Q1019

TAF TAF EIWF
Valido dal 09 a 18 ore il 10 a 03 ore UTC


091700Z 0918/1003 24008KT 9999 FEW030
BECMG 0920/0923 VRB03KT
TEMPO 1000/1003 BKN007
ATIS : +353 51 877 000



MetMap, La meteo Aeronautica in un colpo d'occhio ! - Copyright ORBIFLY Dicembre 2007 - Disclaimer

ORBIFLY MET'MAP TEAM :

Programmazione e sviluppo : Alexandra Zaïnal
Concezione : Baudouin d'Aumeries
Aiuto per la programmazione : Marc-Olivier Méhu
Supporto tecnico e logistico : Manuel Goepfert
Aiuto per la traduzione : Arnaldo La Scala

Contatto : metmap@orbifly.com




FONTI E CREDITI :

   NOAA